Starlink 36268

operational
NORAD ID: 67199 Int'l Des: 2025-304 Owner: SPXS Country: US Constellation: starlink
LEOCIRCULAR

Über Starlink 36268

Beschreibung wird geladen...

Live-Position

3D-Globus wird geladen...

Nächste Überflüge

Höhenverlauf

Altitude vs Time

uPlot chart will show altitude changes over time

Zweizeiliger Elementsatz

1 67199C 25304H 25352.76784722 .00717100 00000+0 98640-3 0 3524
2 67199 69.9983 31.2710 0009110 255.3080 236.5990 16.05078858 19
Epoch: 18. Dez. 2025 • Age: 54 hours

Aktueller Status

Höhe 262.6 km
Geschwindigkeit 7.75 km/s
Subsatellitenpunkt 31.64°N, 137.71°W
Startdatum 17. Dez. 2025
Alter 2 days
Typ internet

Technische Details

Klassifizierung Payload
Masse 575.00 kg
Trockenmasse 530.00 kg
Gesamtmasse 575.00 kg
Länge 0.30 m
Durchmesser 4.10 m
Spannweite 29.00 m
Form Box + pan
Hersteller SPXS
Bus-Typ Starlink V2MO
Phasenstatus In Orbit
Besitzer/Staat SPXS/US

Große Konstellationen

Loading constellations...